Weather History for KMMV - July, 2013

Change the Weather History Date:

Tuesday, July 23, 2013

  Actual Average Record
Temperature  
Mean Temperature 76 °F 67 °F  
Max Temperature 96 °F 83 °F 108 °F (1924)
Min Temperature 55 °F 52 °F 36 °F (1960)
Degree Days  
Heating Degree Days 0 1  
Month to date heating degree days 10 37  
Since 1 July heating degree days 10 37  
Cooling Degree Days 11 3  
Month to date cooling degree days 99 53  
Year to date cooling degree days 152 75  
Growing Degree Days 25 (Base 50)    
Moisture  
Dew Point 55 °F    
Average Humidity 59    
Maximum Humidity 100    
Minimum Humidity 17    
Precipitation  
Precipitation 0.00 in 0.01 in 0.30 in (2014)
Month to date precipitation T 0.43  
Year to date precipitation 10.40 21.68  
Snow  
Snow 0.00 in - - ()
Month to date snowfall 0.0  
Since 1 June snowfall 0.0  
Snow Depth 0.00 in    
Sea Level Pressure  
Sea Level Pressure 29.99 in    
Wind  
Wind Speed 4 mph (North)    
Max Wind Speed 14 mph    
Max Gust Speed 17 mph    
Visibility 10 miles    
Events      
T = Trace of Precipitation, MM = Missing Value Source: NWS Daily Summary

Daily Weather History Graph

Daily Weather History Graph

Search for Another Location

Airport or City:

Trip Planner

Search our weather history database for the weather conditions in past years. The results will help you decide how hot, cold, wet, or windy it might be!

Date:

Astronomy

Jul. 23, 2013 Rise Set
Actual Time 5:47 AM PDT 8:49 PM PDT
Civil Twilight 5:12 AM PDT 9:24 PM PDT
Nautical Twilight 4:27 AM PDT 10:09 PM PDT
Astronomical Twilight 3:33 AM PDT 11:03 PM PDT
Moon 9:13 PM PDT (7/23) 7:09 AM PDT (7/23)
Length of Visible Light 16h 11m
Length of Day
15h 01m
Full, 98% of the Moon is Illuminated
Jul 23
Full
Jul 29
Last Quarter
Aug 6
New
Aug 14
First Quarter
Aug 20
Full

Hourly Weather History & Observations

Time (PDT) Temp. Heat Index Dew Point Humidity Pressure Visibility Wind Dir Wind Speed Gust Speed Precip Events Conditions
12:53 AM 60.1 °F - 55.0 °F 83% 30.00 in 10.0 mi Calm Calm - N/A   Clear
1:53 AM 57.9 °F - 55.0 °F 90% 30.01 in 10.0 mi WNW 4.6 mph - N/A   Clear
2:53 AM 55.9 °F - 55.0 °F 97% 30.00 in 10.0 mi South 3.5 mph - N/A   Clear
3:53 AM 57.9 °F - 55.9 °F 93% 30.01 in 10.0 mi West 4.6 mph - N/A   Clear
4:53 AM 57.0 °F - 55.0 °F 93% 30.02 in 10.0 mi Calm Calm - N/A   Clear
5:53 AM 55.9 °F - 54.0 °F 93% 30.02 in 10.0 mi Calm Calm - N/A   Clear
6:53 AM 57.9 °F - 55.0 °F 90% 30.03 in 10.0 mi Calm Calm - N/A   Clear
7:53 AM 62.1 °F - 55.9 °F 80% 30.04 in 10.0 mi Calm Calm - N/A   Clear
8:53 AM 68.0 °F - 57.9 °F 70% 30.04 in 10.0 mi Calm Calm - N/A   Clear
9:53 AM 72.0 °F - 59.0 °F 64% 30.04 in 10.0 mi NE 5.8 mph - N/A   Clear
10:53 AM 75.9 °F - 61.0 °F 60% 30.01 in 10.0 mi East 5.8 mph - N/A   Clear
11:53 AM 79.0 °F - 60.1 °F 52% 30.00 in 10.0 mi Calm Calm - N/A   Clear
12:53 PM 82.9 °F 82.8 °F 59.0 °F 44% 29.99 in 10.0 mi Calm Calm - N/A   Clear
1:53 PM 89.1 °F 86.9 °F 54.0 °F 30% 29.97 in 10.0 mi NNE 5.8 mph - N/A   Clear
2:53 PM 93.0 °F 90.6 °F 53.1 °F 26% 29.95 in 10.0 mi North 9.2 mph - N/A   Clear
3:53 PM 93.9 °F - 52.0 °F 24% 29.94 in 10.0 mi NNE 9.2 mph - N/A   Clear
4:53 PM 95.0 °F - 45.0 °F 18% 29.92 in 10.0 mi North 8.1 mph - N/A   Clear
5:53 PM 95.0 °F - 48.9 °F 21% 29.92 in 10.0 mi North 8.1 mph - N/A   Clear
6:53 PM 93.0 °F - 48.9 °F 22% 29.92 in 10.0 mi North 9.2 mph - N/A   Clear
7:53 PM 89.1 °F - 50.0 °F 26% 29.94 in 10.0 mi North 5.8 mph - N/A   Clear
8:53 PM 82.9 °F - 52.0 °F 34% 29.96 in 10.0 mi North 4.6 mph - N/A   Clear
9:53 PM 75.0 °F - 55.0 °F 50% 29.98 in 10.0 mi North 4.6 mph - N/A   Clear
10:53 PM 66.0 °F - 57.9 °F 75% 29.99 in 10.0 mi Calm Calm - N/A   Clear
11:53 PM 66.0 °F - 57.0 °F 73% 30.01 in 10.0 mi Calm Calm - N/A   Clear